SAS4425 ENSB-ENTC

Flight info

Callsign SAS4425
Flight time 1h 26m
Altitude 37000
Route AMPIS P853 LOMVI
Aircraft A320/M-SDE3FGHIRWY/LB1

Departure

Time 2026-05-05 08:22
Airport Svalbard Airport, Longyear (ENSB)

Arrival

Time 2026-05-05 09:48
Airport Tromsø Airport (ENTC)
Time Latitude Longitude Altitude Speed Heading
2026-05-05 07:57 78.24645 15.49112 88 ft 0 kts 284°
2026-05-05 08:17 78.24647 15.49077 91 ft 3 kts 283°
2026-05-05 08:17 78.24654 15.48918 89 ft 6 kts 283°
2026-05-05 08:17 78.24629 15.48741 89 ft 9 kts 201°
2026-05-05 08:17 78.24590 15.48500 88 ft 11 kts 259°
2026-05-05 08:18 78.24572 15.48113 91 ft 13 kts 232°
2026-05-05 08:18 78.24545 15.47724 90 ft 15 kts 291°
2026-05-05 08:18 78.24575 15.47214 91 ft 17 kts 285°
2026-05-05 08:18 78.24609 15.46596 89 ft 20 kts 285°
2026-05-05 08:19 78.24649 15.45878 91 ft 24 kts 285°
2026-05-05 08:19 78.24696 15.45039 91 ft 27 kts 285°
2026-05-05 08:19 78.24748 15.44102 88 ft 30 kts 285°
2026-05-05 08:19 78.24802 15.43151 89 ft 25 kts 285°
2026-05-05 08:20 78.24851 15.42280 91 ft 28 kts 285°
2026-05-05 08:20 78.24890 15.41590 88 ft 12 kts 285°
2026-05-05 08:20 78.24923 15.41289 92 ft 6 kts 303°
2026-05-05 08:20 78.24908 15.41202 90 ft 5 kts 154°
2026-05-05 08:21 78.24895 15.41470 91 ft 19 kts 104°
2026-05-05 08:21 78.24799 15.43208 90 ft 84 kts 105°
2026-05-05 08:21 78.24603 15.46765 89 ft 129 kts 105°
2026-05-05 08:21 78.24335 15.51278 469 ft 134 kts 104°
2026-05-05 08:22 78.24074 15.55631 1054 ft 132 kts 101°
2026-05-05 08:22 78.23828 15.60087 1500 ft 142 kts 101°
2026-05-05 08:22 78.23555 15.65107 1745 ft 163 kts 99°
2026-05-05 08:22 78.23089 15.70668 1984 ft 192 kts 115°
2026-05-05 08:23 78.22296 15.76527 2268 ft 219 kts 120°
2026-05-05 08:23 78.21347 15.82841 2747 ft 239 kts 121°
2026-05-05 08:23 78.20339 15.89380 3622 ft 242 kts 120°
2026-05-05 08:23 78.19319 15.95990 4581 ft 244 kts 120°
2026-05-05 08:24 78.18298 16.02672 5480 ft 247 kts 120°
2026-05-05 08:24 78.17295 16.09544 6307 ft 251 kts 118°
2026-05-05 08:24 78.16357 16.16649 7094 ft 254 kts 116°
2026-05-05 08:24 78.15411 16.24115 7924 ft 258 kts 116°
2026-05-05 08:25 78.14483 16.31493 8662 ft 261 kts 116°
2026-05-05 08:25 78.13522 16.39097 9384 ft 266 kts 117°
2026-05-05 08:25 78.12541 16.46789 10164 ft 270 kts 117°
2026-05-05 08:25 78.11520 16.54717 10574 ft 288 kts 117°
2026-05-05 08:26 78.10414 16.63253 10775 ft 309 kts 118°
2026-05-05 08:26 78.09250 16.72160 11332 ft 316 kts 118°
2026-05-05 08:26 78.08061 16.81192 12001 ft 320 kts 118°
2026-05-05 08:26 78.06850 16.90324 12648 ft 324 kts 119°
2026-05-05 08:27 78.05622 16.99519 13329 ft 327 kts 119°
2026-05-05 08:27 78.04381 17.08787 13999 ft 331 kts 119°
2026-05-05 08:27 78.03123 17.18122 14604 ft 334 kts 119°
2026-05-05 08:27 78.01846 17.27541 15207 ft 337 kts 119°
2026-05-05 08:28 78.00554 17.37000 15770 ft 340 kts 119°
2026-05-05 08:28 77.99250 17.46534 16344 ft 343 kts 119°
2026-05-05 08:28 77.97864 17.55951 16928 ft 349 kts 127°
2026-05-05 08:28 77.96085 17.64051 17507 ft 357 kts 139°
2026-05-05 08:29 77.93923 17.70179 18075 ft 366 kts 153°
2026-05-05 08:29 77.91469 17.73879 18638 ft 375 kts 166°
2026-05-05 08:29 77.88860 17.75337 19172 ft 379 kts 171°
2026-05-05 08:30 77.83588 17.77846 20328 ft 383 kts 171°
2026-05-05 08:30 77.80925 17.79120 20886 ft 385 kts 171°
2026-05-05 08:30 77.78254 17.80390 21443 ft 387 kts 171°
2026-05-05 08:30 77.75601 17.81662 21989 ft 389 kts 171°
2026-05-05 08:31 77.72900 17.82973 22538 ft 392 kts 171°
2026-05-05 08:31 77.70170 17.84306 22966 ft 396 kts 169°
2026-05-05 08:31 77.67419 17.85655 23476 ft 398 kts 171°
2026-05-05 08:31 77.64660 17.86979 23932 ft 400 kts 171°
2026-05-05 08:32 77.61881 17.88278 24305 ft 403 kts 170°
2026-05-05 08:32 77.59080 17.89582 24698 ft 406 kts 169°
2026-05-05 08:32 77.56260 17.90904 25016 ft 410 kts 172°
2026-05-05 08:32 77.53415 17.92224 25418 ft 411 kts 171°
2026-05-05 08:33 77.50554 17.93544 25746 ft 415 kts 170°
2026-05-05 08:33 77.47670 17.94876 26091 ft 418 kts 170°
2026-05-05 08:33 77.44768 17.96215 26422 ft 422 kts 169°
2026-05-05 08:33 77.41842 17.97542 26812 ft 423 kts 173°
2026-05-05 08:34 77.38906 17.98864 27155 ft 425 kts 169°
2026-05-05 08:34 77.35949 18.00194 27469 ft 428 kts 171°
2026-05-05 08:34 77.32976 18.01527 27825 ft 430 kts 172°
2026-05-05 08:34 77.29993 18.02854 28184 ft 432 kts 172°
2026-05-05 08:35 77.26987 18.04190 28448 ft 436 kts 171°
2026-05-05 08:35 77.23953 18.05551 28723 ft 439 kts 172°
2026-05-05 08:35 77.20950 18.06910 29076 ft 441 kts 171°
2026-05-05 08:35 77.17879 18.08312 29298 ft 445 kts 171°
2026-05-05 08:36 77.14793 18.09726 29644 ft 447 kts 171°
2026-05-05 08:36 77.11686 18.11149 29925 ft 450 kts 173°
2026-05-05 08:36 77.08566 18.12567 30276 ft 451 kts 171°
2026-05-05 08:36 77.05443 18.13978 30570 ft 451 kts 172°
2026-05-05 08:37 77.02319 18.15363 30927 ft 451 kts 172°
2026-05-05 08:37 76.99197 18.16743 31311 ft 450 kts 173°
2026-05-05 08:37 76.96080 18.18125 31618 ft 452 kts 171°
2026-05-05 08:37 76.92945 18.19494 31879 ft 454 kts 173°
2026-05-05 08:38 76.89803 18.20855 32241 ft 454 kts 172°
2026-05-05 08:38 76.86650 18.22224 32483 ft 457 kts 172°
2026-05-05 08:38 76.83484 18.23591 32778 ft 458 kts 172°
2026-05-05 08:38 76.80323 18.24957 33214 ft 455 kts 173°
2026-05-05 08:39 76.77173 18.26305 33624 ft 454 kts 172°
2026-05-05 08:39 76.74026 18.27646 33993 ft 454 kts 173°
2026-05-05 08:39 76.70890 18.28973 34318 ft 453 kts 173°
2026-05-05 08:39 76.67752 18.30302 34590 ft 453 kts 173°
2026-05-05 08:40 76.64612 18.31628 34807 ft 454 kts 172°
2026-05-05 08:40 76.61470 18.32939 35070 ft 453 kts 172°
2026-05-05 08:40 76.58323 18.34228 35297 ft 454 kts 172°
2026-05-05 08:40 76.55176 18.35515 35496 ft 455 kts 172°
2026-05-05 08:41 76.52021 18.36802 35700 ft 456 kts 173°
2026-05-05 08:41 76.48872 18.38091 35992 ft 454 kts 173°
2026-05-05 08:41 76.45725 18.39375 36210 ft 454 kts 173°
2026-05-05 08:41 76.42621 18.40646 36464 ft 453 kts 173°
2026-05-05 08:42 76.39490 18.41906 36707 ft 452 kts 173°
2026-05-05 08:42 76.36357 18.43128 36898 ft 452 kts 173°
2026-05-05 08:42 76.33223 18.44326 37004 ft 454 kts 174°
2026-05-05 08:43 76.26891 18.46722 37021 ft 459 kts 173°
2026-05-05 08:43 76.20534 18.49145 37010 ft 459 kts 174°
2026-05-05 08:44 76.14172 18.51555 37027 ft 459 kts 173°
2026-05-05 08:44 76.07817 18.53932 37003 ft 458 kts 173°
2026-05-05 08:45 76.01448 18.56264 37019 ft 460 kts 173°
2026-05-05 08:45 75.95066 18.58641 37003 ft 461 kts 173°
2026-05-05 08:46 75.88681 18.60985 37019 ft 461 kts 173°
2026-05-05 08:46 75.82295 18.63263 37020 ft 460 kts 173°
2026-05-05 08:47 75.75914 18.65516 36998 ft 460 kts 173°
2026-05-05 08:47 75.69538 18.67767 37012 ft 460 kts 173°
2026-05-05 08:48 75.63159 18.70009 37010 ft 460 kts 173°
2026-05-05 08:48 75.56821 18.72245 36989 ft 460 kts 174°
2026-05-05 08:49 75.50448 18.74454 36992 ft 460 kts 174°
2026-05-05 08:49 75.44073 18.76627 36974 ft 460 kts 174°
2026-05-05 08:50 75.37702 18.78796 36989 ft 460 kts 173°
2026-05-05 08:50 75.31322 18.80921 36974 ft 460 kts 173°
2026-05-05 08:51 75.24946 18.83039 36967 ft 460 kts 174°
2026-05-05 08:51 75.18578 18.85176 36963 ft 459 kts 173°
2026-05-05 08:52 75.12202 18.87277 36958 ft 460 kts 173°
2026-05-05 08:52 75.05827 18.89337 36949 ft 460 kts 173°
2026-05-05 08:53 74.99447 18.91387 36957 ft 460 kts 174°
2026-05-05 08:53 74.93075 18.93433 36952 ft 459 kts 174°
2026-05-05 08:54 74.86756 18.95452 36953 ft 458 kts 174°
2026-05-05 08:54 74.80402 18.97434 36932 ft 458 kts 173°
2026-05-05 08:55 74.74044 18.99383 36930 ft 458 kts 173°
2026-05-05 08:55 74.67687 19.01358 36922 ft 458 kts 174°
2026-05-05 08:56 74.61339 19.03328 36927 ft 458 kts 173°
2026-05-05 08:56 74.54991 19.05257 36929 ft 458 kts 173°
2026-05-05 08:57 74.48634 19.07161 36912 ft 458 kts 173°
2026-05-05 08:57 74.42282 19.09051 36911 ft 458 kts 173°
2026-05-05 08:58 74.35928 19.10934 36897 ft 458 kts 174°
2026-05-05 08:58 74.29572 19.12838 36902 ft 458 kts 173°
2026-05-05 08:59 74.23223 19.14701 36896 ft 458 kts 173°
2026-05-05 08:59 74.16862 19.16539 36891 ft 458 kts 174°
2026-05-05 09:00 74.10505 19.18371 36889 ft 458 kts 174°
2026-05-05 09:00 74.04155 19.20217 36885 ft 457 kts 174°
2026-05-05 09:01 73.97854 19.21997 36887 ft 457 kts 174°
2026-05-05 09:01 73.91512 19.23745 36869 ft 457 kts 173°
2026-05-05 09:02 73.85167 19.25515 36873 ft 457 kts 173°
2026-05-05 09:02 73.78828 19.27305 36872 ft 457 kts 174°
2026-05-05 09:03 73.72494 19.29073 36851 ft 457 kts 174°
2026-05-05 09:03 73.66160 19.30804 36846 ft 457 kts 174°
2026-05-05 09:04 73.59820 19.32483 36842 ft 457 kts 175°
2026-05-05 09:04 73.53476 19.34172 36844 ft 457 kts 174°
2026-05-05 09:05 73.47143 19.35881 36844 ft 457 kts 174°
2026-05-05 09:05 73.41876 19.37278 36825 ft 456 kts 174°
2026-05-05 09:06 73.35547 19.38958 36829 ft 456 kts 174°
2026-05-05 09:06 73.29212 19.40604 36816 ft 456 kts 174°
2026-05-05 09:07 73.22882 19.42246 36822 ft 456 kts 175°
2026-05-05 09:07 73.16557 19.43871 36820 ft 455 kts 174°
2026-05-05 09:08 73.10283 19.45494 36810 ft 455 kts 174°
2026-05-05 09:08 73.03965 19.47084 36808 ft 455 kts 174°
2026-05-05 09:09 72.97656 19.48662 36793 ft 454 kts 174°
2026-05-05 09:09 72.91351 19.50235 36791 ft 454 kts 175°
2026-05-05 09:10 72.85048 19.51807 36784 ft 454 kts 175°
2026-05-05 09:10 72.78745 19.53348 36783 ft 454 kts 174°
2026-05-05 09:11 72.72438 19.54916 36769 ft 454 kts 174°
2026-05-05 09:11 72.66135 19.56451 36770 ft 454 kts 175°
2026-05-05 09:12 72.59835 19.57958 36763 ft 454 kts 175°
2026-05-05 09:12 72.53532 19.59437 36760 ft 454 kts 175°
2026-05-05 09:13 72.47230 19.60939 36762 ft 454 kts 174°
2026-05-05 09:13 72.40927 19.62455 36760 ft 454 kts 175°
2026-05-05 09:14 72.34630 19.63953 36744 ft 454 kts 175°
2026-05-05 09:14 72.28334 19.65410 36749 ft 453 kts 175°
2026-05-05 09:15 72.22050 19.66844 36735 ft 452 kts 175°
2026-05-05 09:15 72.15778 19.68279 36738 ft 452 kts 175°
2026-05-05 09:16 72.09503 19.69658 36732 ft 452 kts 179°
2026-05-05 09:16 72.03264 19.67475 36729 ft 452 kts 188°
2026-05-05 09:17 71.97096 19.64321 36716 ft 452 kts 188°
2026-05-05 09:17 71.90880 19.61179 36717 ft 452 kts 188°
2026-05-05 09:18 71.84662 19.58103 36711 ft 452 kts 188°
2026-05-05 09:18 71.78456 19.55024 36707 ft 452 kts 188°
2026-05-05 09:19 71.72243 19.51969 36706 ft 451 kts 188°
2026-05-05 09:19 71.66033 19.48937 36699 ft 451 kts 188°
2026-05-05 09:20 71.59820 19.45918 36707 ft 451 kts 188°
2026-05-05 09:20 71.53616 19.42932 36689 ft 451 kts 188°
2026-05-05 09:21 71.47410 19.39982 36692 ft 451 kts 188°
2026-05-05 09:21 71.41206 19.37021 36691 ft 451 kts 188°
2026-05-05 09:22 71.35004 19.34078 36683 ft 451 kts 188°
2026-05-05 09:22 71.28809 19.31159 36675 ft 451 kts 188°
2026-05-05 09:23 71.22609 19.28291 36543 ft 450 kts 188°
2026-05-05 09:23 71.19477 19.26838 35554 ft 460 kts 188°
2026-05-05 09:23 71.16371 19.25392 35215 ft 453 kts 188°
2026-05-05 09:23 71.13270 19.23952 34771 ft 450 kts 188°
2026-05-05 09:24 71.10179 19.22528 34283 ft 448 kts 188°
2026-05-05 09:24 71.07102 19.21112 33805 ft 446 kts 187°
2026-05-05 09:24 71.04037 19.19719 33251 ft 444 kts 188°
2026-05-05 09:24 71.00989 19.18341 32776 ft 441 kts 188°
2026-05-05 09:25 70.97972 19.16981 32279 ft 437 kts 187°
2026-05-05 09:25 70.94973 19.15627 31804 ft 433 kts 188°
2026-05-05 09:25 70.92006 19.14287 31336 ft 430 kts 188°
2026-05-05 09:25 70.89059 19.12960 30869 ft 426 kts 188°
2026-05-05 09:26 70.86135 19.11641 30416 ft 422 kts 188°
2026-05-05 09:26 70.83242 19.10346 29961 ft 419 kts 188°
2026-05-05 09:26 70.80365 19.09070 29483 ft 416 kts 187°
2026-05-05 09:26 70.77525 19.07820 29030 ft 410 kts 188°
2026-05-05 09:27 70.74720 19.06585 28618 ft 404 kts 187°
2026-05-05 09:27 70.71953 19.05356 28220 ft 399 kts 188°
2026-05-05 09:27 70.69225 19.04139 27809 ft 394 kts 188°
2026-05-05 09:27 70.66520 19.02937 27410 ft 390 kts 188°
2026-05-05 09:28 70.63843 19.01756 27022 ft 387 kts 188°
2026-05-05 09:28 70.61179 19.01011 26620 ft 383 kts 180°
2026-05-05 09:28 70.58522 19.00979 26218 ft 381 kts 180°
2026-05-05 09:28 70.55885 19.00956 25810 ft 378 kts 180°
2026-05-05 09:29 70.53259 19.00929 25401 ft 376 kts 180°
2026-05-05 09:29 70.50681 19.00894 24995 ft 374 kts 180°
2026-05-05 09:29 70.48045 19.00851 24581 ft 373 kts 180°
2026-05-05 09:29 70.45457 19.00804 24148 ft 372 kts 180°
2026-05-05 09:30 70.42914 19.00764 23765 ft 370 kts 180°
2026-05-05 09:30 70.40347 19.00724 23333 ft 369 kts 180°
2026-05-05 09:30 70.37807 19.00682 23055 ft 363 kts 180°
2026-05-05 09:30 70.35290 19.00643 22537 ft 361 kts 180°
2026-05-05 09:31 70.32779 19.00610 22070 ft 359 kts 180°
2026-05-05 09:31 70.30290 19.00578 21565 ft 357 kts 180°
2026-05-05 09:31 70.27816 19.00543 21156 ft 353 kts 180°
2026-05-05 09:31 70.25357 19.00506 20694 ft 351 kts 180°
2026-05-05 09:32 70.22929 19.00473 20273 ft 347 kts 180°
2026-05-05 09:32 70.20532 19.00441 19868 ft 344 kts 181°
2026-05-05 09:32 70.18152 19.00401 19461 ft 340 kts 181°
2026-05-05 09:32 70.15793 19.00357 19054 ft 338 kts 181°
2026-05-05 09:33 70.13451 19.00317 18646 ft 335 kts 181°
2026-05-05 09:33 70.11126 19.00279 18239 ft 333 kts 181°
2026-05-05 09:33 70.08829 18.99752 17836 ft 330 kts 192°
2026-05-05 09:33 70.06643 18.97813 17415 ft 326 kts 205°
2026-05-05 09:34 70.04613 18.94947 17018 ft 322 kts 207°
2026-05-05 09:34 70.02606 18.92080 16627 ft 319 kts 207°
2026-05-05 09:34 70.00619 18.89251 16250 ft 317 kts 206°
2026-05-05 09:34 69.98645 18.86448 15865 ft 314 kts 206°
2026-05-05 09:35 69.96684 18.83671 15489 ft 312 kts 206°
2026-05-05 09:35 69.92801 18.78192 14741 ft 308 kts 206°
2026-05-05 09:35 69.90899 18.75526 14374 ft 307 kts 206°
2026-05-05 09:36 69.88981 18.72836 14008 ft 306 kts 206°
2026-05-05 09:36 69.87068 18.70153 13634 ft 305 kts 206°
2026-05-05 09:36 69.85160 18.67482 13250 ft 304 kts 206°
2026-05-05 09:36 69.83260 18.64823 12866 ft 302 kts 205°
2026-05-05 09:37 69.81371 18.62190 12499 ft 300 kts 205°
2026-05-05 09:37 69.79494 18.59583 12142 ft 298 kts 205°
2026-05-05 09:37 69.77627 18.57000 11779 ft 297 kts 205°
2026-05-05 09:37 69.75765 18.54440 11412 ft 295 kts 205°
2026-05-05 09:38 69.73914 18.51899 11050 ft 294 kts 205°
2026-05-05 09:38 69.72073 18.49366 10699 ft 292 kts 205°
2026-05-05 09:38 69.70212 18.47024 10345 ft 291 kts 197°
2026-05-05 09:38 69.68239 18.45891 9991 ft 289 kts 183°
2026-05-05 09:39 69.66235 18.45898 9635 ft 288 kts 177°
2026-05-05 09:39 69.64235 18.46011 9280 ft 287 kts 177°
2026-05-05 09:39 69.62246 18.46110 8905 ft 286 kts 178°
2026-05-05 09:39 69.60268 18.46202 8566 ft 283 kts 178°
2026-05-05 09:40 69.58299 18.46295 8186 ft 283 kts 178°
2026-05-05 09:40 69.56344 18.46395 7876 ft 281 kts 178°
2026-05-05 09:40 69.54402 18.46497 7523 ft 280 kts 178°
2026-05-05 09:40 69.52491 18.46597 7207 ft 278 kts 178°
2026-05-05 09:41 69.50569 18.46693 6891 ft 275 kts 178°
2026-05-05 09:41 69.48679 18.46784 6720 ft 267 kts 178°
2026-05-05 09:41 69.46852 18.46980 6585 ft 257 kts 169°
2026-05-05 09:41 69.45233 18.48745 6454 ft 245 kts 143°
2026-05-05 09:42 69.44097 18.52160 6321 ft 234 kts 118°
2026-05-05 09:42 69.43543 18.56504 5963 ft 237 kts 102°
2026-05-05 09:42 69.43188 18.61127 5445 ft 244 kts 102°
2026-05-05 09:42 69.42817 18.65899 5036 ft 248 kts 102°
2026-05-05 09:43 69.42633 18.70635 4968 ft 236 kts 79°
2026-05-05 09:43 69.43362 18.74575 4970 ft 223 kts 40°
2026-05-05 09:43 69.44715 18.76340 4968 ft 211 kts 14°
2026-05-05 09:43 69.46109 18.77237 4971 ft 202 kts 14°
2026-05-05 09:44 69.47420 18.78089 5002 ft 185 kts 14°
2026-05-05 09:44 69.48662 18.78901 4985 ft 185 kts 14°
2026-05-05 09:44 69.49931 18.79733 4810 ft 188 kts 14°
2026-05-05 09:44 69.51199 18.80564 4512 ft 186 kts 14°
2026-05-05 09:45 69.52459 18.81390 4177 ft 185 kts 14°
2026-05-05 09:45 69.53707 18.82210 3826 ft 184 kts 14°
2026-05-05 09:45 69.54951 18.83028 3482 ft 183 kts 14°
2026-05-05 09:45 69.56188 18.83842 3144 ft 182 kts 14°
2026-05-05 09:46 69.57418 18.84654 2806 ft 180 kts 13°
2026-05-05 09:46 69.58601 18.85434 2472 ft 173 kts 14°
2026-05-05 09:46 69.59780 18.86213 2161 ft 171 kts 13°
2026-05-05 09:46 69.60933 18.86976 1814 ft 169 kts 13°
2026-05-05 09:47 69.62060 18.87722 1500 ft 169 kts 14°
2026-05-05 09:47 69.63198 18.88477 1173 ft 167 kts 14°
2026-05-05 09:47 69.64325 18.89225 859 ft 166 kts 14°
2026-05-05 09:47 69.65399 18.89938 590 ft 150 kts 14°
2026-05-05 09:48 69.66374 18.90585 323 ft 139 kts 14°
2026-05-05 09:48 69.67299 18.91195 87 ft 135 kts 14°
2026-05-05 09:48 69.68123 18.91758 33 ft 101 kts 13°
2026-05-05 09:48 69.68623 18.92082 31 ft 30 kts 12°
2026-05-05 09:49 69.68746 18.92128 28 ft 14 kts 330°
2026-05-05 09:49 69.68777 18.91861 30 ft 15 kts 281°
2026-05-05 09:49 69.68714 18.91672 31 ft 16 kts 191°
2026-05-05 09:49 69.68594 18.91598 32 ft 19 kts 193°
2026-05-05 09:50 69.68460 18.91508 33 ft 21 kts 190°
2026-05-05 09:50 69.68309 18.91487 34 ft 23 kts 191°
2026-05-05 09:50 69.68148 18.91377 35 ft 25 kts 194°
2026-05-05 09:50 69.68021 18.91292 36 ft 11 kts 192°
2026-05-05 09:51 69.67963 18.91239 34 ft 6 kts 227°
2026-05-05 09:51 69.67964 18.91116 36 ft 7 kts 282°
2026-05-05 09:51 69.67975 18.90984 36 ft 7 kts 284°
2026-05-05 09:51 69.67978 18.90947 36 ft 0 kts 283°